User: anonymous   Login
Location: ??
(35.5052°N, 139.7262°E)
Time: 05:31:04
(UTC+00:00)
Language:

CZ-2D R/B - Orbit

View from above orbital plane
View from above orbital plane
View from above satellite
View from above satellite

Ground track
Ground track

The orbit data is extracted from the following two-line orbital elements,

1 37932U 11068C   21260.57454439  .00000006  00000-0  22578-4 0  9996
2 37932  98.6930 195.4323 0036253 221.1216 312.3436 14.22081829510074
Epoch (UTC): 17 September 2021 13:47:20
Eccentricity: 0.0036253
inclination: 98.6930°
perigee height: 792 km
apogee height: 844 km
right ascension of ascending node: 195.4323°
argument of perigee: 221.1216°
revolutions per day: 14.22081829
mean anomaly at epoch: 312.3436°
orbit number at epoch: 51007

The dashed part of the orbit path shows where the satellite is in the earth's shadow,  

DLR